This demonstration page uses our WeatherBlox Daily Observations layout. Learn more.

Left ArrowRight Arrow

Hourly Observations for December 20, 2019

Temp ( °F °C ) Dew Point ( °F °C ) Humidity (%) Winds ( mph kmh ) Pressure ( in mb ) Visibility ( mi km ) Precip ( " mm )
12:53 am 00:53 Mostly Cloudy 20 -6.7 15 -9.4 81 81 E 9 15 29.93 1013 10 16 0.00 0.00
1:53 am 01:53 Clear 19 -7.2 14 -10 81 81 ENE 9 15 29.90 1012 10 16 0.00 0.00
2:53 am 02:53 Cloudy 21 -6.1 16 -8.9 81 81 E 6 9 29.88 1012 10 16 0.00 0.00
3:53 am 03:53 Clear 22 -5.6 18 -7.8 85 85 E 5 7 29.88 1012 10 16 0.00 0.00
4:53 am 04:53 Clear 37 2.8 26 -3.3 65 65 SW 14 22 29.83 1010 10 16 0.00 0.00
5:53 am 05:53 Partly Cloudy 43 6.1 29 -1.7 58 58 SSW 23 37 29.80 1009 10 16 0.00 0.00
6:53 am 06:53 Clear 45 7.2 29 -1.7 54 54 SSW 30 48 29.79 1009 10 16 0.00 0.00
7:53 am 07:53 Clear 44 6.7 29 -1.7 55 55 SW 26 43 29.80 1009 10 16 0.00 0.00
8:53 am 08:53 Sunny 43 6.1 30 -1.1 60 60 SW 23 37 29.82 1010 10 16 0.00 0.00
9:53 am 09:53 Sunny 45 7.2 30 -1.1 56 56 SW 25 41 29.83 1010 10 16 0.00 0.00
10:53 am 10:53 Sunny 46 7.8 30 -1.1 54 54 SW 29 46 29.83 1010 10 16 0.00 0.00
11:53 am 11:53 Sunny 47 8.3 31 -0.6 54 54 SW 31 50 29.80 1009 10 16 0.00 0.00
12:53 pm 12:53 Sunny 47 8.3 33 0.6 59 59 SW 33 54 29.82 1010 10 16 0.00 0.00
1:53 pm 13:53 Sunny 48 8.9 33 0.6 56 56 SW 29 46 29.81 1010 10 16 0.00 0.00
2:53 pm 14:53 Sunny 47 8.3 34 1.1 61 61 SW 20 31 29.82 1010 10 16 0.00 0.00
3:53 pm 15:53 Sunny 45 7.2 32 0 61 61 WSW 12 19 29.83 1010 10 16 0.00 0.00
4:53 pm 16:53 Clear 50 10 30 -1.1 46 46 SW 24 39 29.79 1009 10 16 0.00 0.00
5:53 pm 17:53 Clear 50 10 29 -1.7 44 44 SW 28 44 29.75 1008 10 16 0.00 0.00
6:53 pm 18:53 Clear 49 9.4 29 -1.7 46 46 SW 23 37 29.76 1008 10 16 0.00 0.00
7:53 pm 19:53 Clear 47 8.3 28 -2.2 48 48 SW 24 39 29.79 1009 10 16 0.00 0.00
8:53 pm 20:53 Clear 47 8.3 28 -2.2 48 48 SW 20 31 29.82 1010 10 16 0.00 0.00
9:53 pm 21:53 Clear 48 8.9 27 -2.8 44 44 SW 20 31 29.82 1010 10 16 0.00 0.00
10:53 pm 22:53 Clear 46 7.8 27 -2.8 47 47 SW 18 30 29.83 1010 10 16 0.00 0.00
11:53 pm 23:53 Clear 42 5.6 28 -2.2 58 58 WSW 15 24 29.85 1011 10 16 0.00 0.00

Powered by AerisWeather